616  
ASHW40 PHFO 040943  
RWRHI  
 
WEATHER ROUNDUP FOR HAWAII  
NATIONAL WEATHER SERVICE HONOLULU HI  
1100 PM HST FRI JUL 03 2015  
 
THIS IS AN AUTOMATED REPORT THAT HAS NOT BEEN QUALITY CONTROLLED.  
 
NOTE..."FAIR" INDICATES FEW OR NO CLOUDS BELOW 12,000 FEET WITH NO  
SIGNIFICANT WEATHER AND/OR S TO VISIBILITY
.  
 
* - THESE SITES REPORT LIMITED FIELDS  
 
HIZ001>004-041000-  
KAUAI-NIIHAU-  
 
CITY SKY/WX TMP DP RH WIND PRES REMARKS
 
LIHUE APT MOCLDY 79 73 82 E9 29.97R  
PORT ALLEN* NOT AVBL  
POIPU* N/A 79 N/A N/A NE6 N/A  
PRINCEVILLE* N/A 73 N/A N/A MISG N/A  
KOKOLE POINT* NOT AVBL  
MOLOAA DAIRY* NOT AVBL  
WAIMEA HTS* N/A 75 68 78 E3 N/A  
PUU OPAE* N/A 70 66 88 VRB3 N/A  
PUU LUA* NOT AVBL  
MAKAHA RIDGE* N/A 72 70 94 CALM N/A  

 
 
HIZ005>011-041000-  
OAHU-  
 
CITY SKY/WX TMP DP RH WIND PRES REMARKS
 
HONOLULU PTCLDY 80 69 69 E10 29.96R  
KALAELOA CLEAR 76 67 73 CALM 29.97R  
KANEOHE MCB PTCLDY 77 70 79 SE3 29.94R  
WHEELER FIELD FAIR 74 67 79 E2 29.97R  
BELLOWS* N/A N/A N/A N/A NE10 N/A  
KAHUKU* N/A N/A N/A N/A E7 N/A  
WHEELER* NOT AVBL  
WAIANAE HARBOR NOT AVBL  
DILLINGHAM* N/A 73 66 78 MISG N/A  
KAHUKU TRN* N/A 75 68 78 E7G14 N/A  
KAWAILOA* N/A 72 66 83 E6G13 N/A  
KII* N/A 79 70 73 E12 N/A  
MAKUA RANGE* N/A 75 70 83 SE3 N/A  
OAHU FOREST NW N/A 66 66 100 CALM N/A  
SCHOFIELD BRK* N/A 73 68 83 S1 N/A  
SCHOFIELD S* NOT AVBL  
WAIANAE VLY* N/A 88 79 74 MISG N/A HX 102  
KUAOKALA* N/A 75 66 73 SE3G10 N/A  
HONOULIUULI* NOT AVBL  
MOKUOLOE IS* N/A N/A N/A N/A MISG N/A  
PALEHUA* N/A 66 63 88 NE6G12 N/A  
WAIAWA PHB* NOT AVBL  

 
 
HIZ012>013-041000-  
MOLOKAI-  
 
CITY SKY/WX TMP DP RH WIND PRES REMARKS
 
MOLOKAI AIRPT PTCLDY 74 65 73 NE6 29.97R  
KALAUPAPA NOT AVBL  
MAKAPULAPAI* N/A 77 68 73 E8G18 N/A  
MOLOKAI 1* N/A 82 81 94 N1 N/A HX 95  
PUU ALII* N/A 59 58 95 CALM N/A  

 
 
HIZ016-041000-  
KAHOOLAWE-  
 
CITY SKY/WX TMP DP RH WIND PRES REMARKS
 
KAHOOLAWE* NOT AVBL  
HAKIOAWA* N/A 72 67 85 MISG 30.39S  
HONOKANAIA* N/A 79 68 69 NE13G22 29.96S  
KANELOA* N/A 75 68 78 E14G23 30.02  
KEALIALALO* N/A 75 68 78 SE14G29 29.96S  
LUA MAKIKA* NOT AVBL  

 
 
HIZ014>015-041000-  
LANAI-  
 
CITY SKY/WX TMP DP RH WIND PRES REMARKS
 
LANAI CITY MOCLDY 70 66 88 NE3 30.02R  
LANAI 1* N/A 72 68 88 NE9G17 N/A  

 
 
HIZ017>028-041000-  
MAUI-  
 
CITY SKY/WX TMP DP RH WIND PRES REMARKS
 
KAHULUI PTCLDY 74 67 78 CALM 29.96R  
KAPALUA-W MAUI NOT AVBL  
HANA AIRPORT PTCLDY 73 68 83 CALM 30.00S  
HANA* N/A 75 N/A N/A S3 N/A  
HALEAKALA SUMM N/A 48 25 40 NE10 N/A  
MAALAEA BAY* NOT AVBL  
HALEAKALA* NOT AVBL  
KAUPO GAP* N/A 61 54 77 N3G10 N/A  
KULA 1* N/A 59 33 37 E5 N/A  

 
 
HIZ023>026-041000-  
BIG ISLAND OF HAWAII COAST AND LOWER SLOPES-  
 
CITY SKY/WX TMP DP RH WIND PRES REMARKS
 
KAILUA KONA CLOUDY 81 73 78 SW10 29.93R  
HILO PTCLDY 72 66 81 SW5 29.98R  
HONOKAA* NOT AVBL  
KAWAIHAE MWT* N/A 81 N/A N/A SE1 N/A  
KAWAIHAE* N/A 81 N/A N/A W2 N/A  
SOUTH POINT* N/A 73 N/A N/A NE9G15 N/A  
UPOLU AIRPORT* N/A N/A N/A N/A E8 N/A  
KAMUELA* MOSUNNY 64 61 88 E7 30.07S  
HAKALAU* N/A 53 35 49 W3 N/A  
KALOKO-HONOKO* N/A 81 73 78 SW8 29.93R  
PALI 2* N/A 64 59 82 VRB12G17 N/A  
KEALAKOMO* N/A 64 50 59 NE8G18 N/A  
KAUPULEHU* N/A 73 66 78 SE3 N/A  
KAPAPALA* N/A 67 65 92 NW3 N/A  
LOWER KAHUKU* N/A 63 63 100 NE1G8 N/A  
PUHE CS* N/A 81 63 54 E3G9 N/A  
PUHO CS* N/A 76 69 79 E3 N/A  
PTA KEAMUKU* N/A 61 57 88 CALM N/A  
WAIKOLOA* N/A 72 61 68 E12 N/A  

 
 
HIZ027>028-041000-  
BIG ISLAND OF HAWAII INTERIOR AND SUMMMITS-  
 
CITY SKY/WX TMP DP RH WIND PRES REMARKS
 
BRADSHAW FIELD CLEAR 56 44 63 SE3 30.30R  
MK VISITOR CEN N/A 0 0 100 MISG N/A  
MAUNA KEA* N/A 30 19 64 E16 N/A WCI 19  
MAUNA LOA* N/A N/A N/A N/A MISG N/A  
MAUNA LOA 1* NOT AVBL  
PTA KIPUKA* N/A 54 52 94 E2 N/A  
PTA RANGE 17* N/A 61 41 48 S1G9 N/A  
PTA WEST* N/A 55 54 94 SE7 N/A  
NENE CABIN* N/A N/A N/A N/A NE3 N/A  
AHUMOA* N/A 56 41 58 E3G9 N/A  
PTA PORTABLE* NOT AVBL  
PUU MALI* N/A N/A N/A N/A SE10G16 N/A  

 
 
HIC003-041000-  
NORTHWEST ISLANDS-  
 
CITY SKY/WX TMP DP RH WIND PRES REMARKS
 
MIDWAY ISLAND CLEAR 79 75 89 W8 29.90S  
MIDWAY NOS* NOT AVBL  
FRENCH FRIGATE NOT AVBL  

 
 
PHZ110>124-180-041000-  
BUOY REPORTS  
 
STATION/POSITION TIME TEMP WIND PRES WAVE SWELL
 
AIR SEA DIR/SP/G HT/PER HT/DIR  
(UTC) (F) (DEG/KT/KT) (MB) (FT/S) (FT/D)  
BUOY 51001 NOT AVBL  
BUOY 51101 0900 79 81 170/ 10/ 12 1013.0R 4/12 3/150  
BUOY 51100 NOT AVBL  
BUOY 51002 0900 80 81 90/ 14/ 16 1013.4R 7/14 5/180  
BUOY 51003 0900 81 82 150/ 10/ 12 1013.6R 6/14 5  
BUOY 51004 0816 77 80 50/ 8/ 10 1013.7R 6/ 8 7/100  
BARBERS PT BUOY NOT AVBL  
WAIMEA BAY BUOY 0900 79 N/A 3/ 8  
KAILUA BAY BUOY 0900 80 N/A 5/ 7 2/140  
LANAI BUOY NOT AVBL  
BARBERS PT 2 0900 81 N/A 4/13 3/180  
PAUWELA MAUI 0900 79 N/A 4/ 9  
HILO 0900 79 N/A 5/ 8 2/100  
KANEOHE BAY BUOY 0900 80 N/A 4/ 7  
HANALEI KAUAI 0900 81 N/A 4/ 9 2/290  
KAHULUI HARBOR 0900 76 83 10/ 6/ 7 1014.2R  
HONOLULU HARBOR 0900 79 82 40/ 2/ 3 1014.7R  
KILO NALU NOT AVBL  
HILO HARBOR 0900 73 78 CALM / 3 1014.7S  
MOKUOLOE 0900 84 1014.8R  
NAWILIWILI 0900 79 81 60/ 9/ 11 1014.3R  
WHOTS BUOY NOT AVBL  
BUOY 51028 NOT AVBL  

 
   
.....................KEY.....................................
 
 
SKY/WX - SKY CONDITIONS/PRESENT WEATHER  
TMP - TEMPERATURE IN FAHRENHEIT  
DWPT - DEWPOINT IN FAHRENHEIT  
RH - RELATIVE HUMIDITY IN PERCENT  
WIND - DIRECTION AND SPEED /MPH FOR ISLANDS...KTS FOR BUOYS/  
PRES - MEAN SEA LEVEL PRESSURE IN INCHES OF HG  
VSB - VISIBILITY IN MILES  
HX - HEAT INDEX  
WCI - WIND CHILL INDEX  
VRB - VARIABLE WIND DIRECTION  
N/A - NOT AVAILABLE  
 
CLICK HERE TO GO TO PREVIOUS BULLETINS.

The Nexlab HI Page Main Text Page